Location: La Chapelle
(48.3135°N, 1.3085°W)
Time: 21:28:05
(UTC+00:00)

Cosmos 1470 Rocket - Pass Details

Date: 03 March 2021
Orbit: 603 x 634 km, 82.5° (Epoch: 14 April)

Event Time Altitude Azimuth Distance (km) Brightness Sun altitude
Rises 18:35:25 0° 172° (S) 2,917 6.9 -7.9°
Reaches altitude 10° 18:37:42 10° 166° (SSE) 2,012 6.1 -8.3°
Maximum altitude 18:41:58 46° 93° (E) 849 3.8 -9.0°
Drops below altitude 10° 18:46:15 10° 21° (NNE) 2,016 6.0 -9.7°
Sets 18:48:32 0° 15° (NNE) 2,923 6.9 -10.1°
